Time,TemperatureF,DewpointF,PressureIn,WindDirection,WindDirectionDegrees,WindSpeedMPH,WindSpeedGustMPH,Humidity,HourlyPrecipIn,Conditions,Clouds,dailyrainin,SoftwareType,DateUTC
2013-05-19 00:01:00,57.5,30.8,24.57,SW,231,0.0,1.0,36,0.00,,,0.00,VWS V14.01,2013-05-19 07:01:00,
2013-05-19 00:06:00,57.5,30.8,24.57,SW,230,0.0,1.0,36,0.00,,,0.00,VWS V14.01,2013-05-19 07:06:00,
2013-05-19 00:11:00,57.5,30.8,24.57,SW,231,0.0,1.0,36,0.00,,,0.00,VWS V14.01,2013-05-19 07:11:00,
2013-05-19 00:16:00,57.4,30.7,24.57,SW,230,0.0,1.0,36,0.00,,,0.00,VWS V14.01,2013-05-19 07:16:00,
2013-05-19 00:21:00,57.4,30.7,24.57,SW,230,1.0,2.0,36,0.00,,,0.00,VWS V14.01,2013-05-19 07:21:00,
2013-05-19 00:26:00,57.3,30.6,24.57,SW,230,0.0,2.0,36,0.00,,,0.00,VWS V14.01,2013-05-19 07:26:00,
2013-05-19 00:31:00,57.1,30.4,24.57,SW,230,0.0,0.0,36,0.00,,,0.00,VWS V14.01,2013-05-19 07:31:00,
2013-05-19 00:36:00,57.0,30.3,24.57,SW,230,0.0,2.0,36,0.00,,,0.00,VWS V14.01,2013-05-19 07:36:00,
2013-05-19 00:41:00,56.9,30.2,24.57,SW,230,2.0,2.0,36,0.00,,,0.00,VWS V14.01,2013-05-19 07:41:00,
2013-05-19 00:46:00,56.8,30.1,24.57,East,94,0.0,4.0,36,0.00,,,0.00,VWS V14.01,2013-05-19 07:46:00,
2013-05-19 00:51:00,56.7,30.1,24.57,East,94,0.0,4.0,36,0.00,,,0.00,VWS V14.01,2013-05-19 07:51:00,
2013-05-19 00:56:00,56.8,29.5,24.57,East,90,0.0,4.0,35,0.00,,,0.00,VWS V14.01,2013-05-19 07:56:00,
2013-05-19 01:01:00,56.8,29.5,24.57,East,87,0.0,3.0,35,0.00,,,0.00,VWS V14.01,2013-05-19 08:01:00,
2013-05-19 01:06:00,56.8,28.8,24.57,ENE,75,4.0,5.0,34,0.00,,,0.00,VWS V14.01,2013-05-19 08:06:00,
2013-05-19 01:11:00,56.9,28.8,24.57,East,79,0.0,5.0,34,0.00,,,0.00,VWS V14.01,2013-05-19 08:11:00,
2013-05-19 01:16:00,56.9,28.1,24.57,East,79,0.0,5.0,33,0.00,,,0.00,VWS V14.01,2013-05-19 08:16:00,
2013-05-19 01:21:00,56.8,28.0,24.57,ENE,78,0.0,5.0,33,0.00,,,0.00,VWS V14.01,2013-05-19 08:21:00,
2013-05-19 01:26:00,56.8,28.0,24.57,East,84,2.0,5.0,33,0.00,,,0.00,VWS V14.01,2013-05-19 08:26:00,
2013-05-19 01:31:00,56.9,27.4,24.57,East,84,0.0,1.0,32,0.00,,,0.00,VWS V14.01,2013-05-19 08:31:00,
2013-05-19 01:36:00,56.8,28.0,24.57,East,83,2.0,2.0,33,0.00,,,0.00,VWS V14.01,2013-05-19 08:36:00,
2013-05-19 01:41:00,56.7,27.2,24.57,East,83,2.0,2.0,32,0.00,,,0.00,VWS V14.01,2013-05-19 08:41:00,
2013-05-19 01:46:00,56.6,27.1,24.57,East,84,0.0,3.0,32,0.00,,,0.00,VWS V14.01,2013-05-19 08:46:00,
2013-05-19 01:51:00,56.6,27.1,24.57,East,84,1.0,3.0,32,0.00,,,0.00,VWS V14.01,2013-05-19 08:51:00,
2013-05-19 01:56:00,56.5,27.0,24.57,East,84,0.0,3.0,32,0.00,,,0.00,VWS V14.01,2013-05-19 08:56:00,
2013-05-19 02:01:00,56.5,27.0,24.57,East,84,0.0,4.0,32,0.00,,,0.00,VWS V14.01,2013-05-19 09:01:00,
2013-05-19 02:06:00,56.4,26.9,24.57,East,82,0.0,4.0,32,0.00,,,0.00,VWS V14.01,2013-05-19 09:06:00,
2013-05-19 02:11:00,56.4,26.2,24.57,East,82,0.0,4.0,31,0.00,,,0.00,VWS V14.01,2013-05-19 09:11:00,
2013-05-19 02:16:00,56.3,26.1,24.57,East,82,0.0,4.0,31,0.00,,,0.00,VWS V14.01,2013-05-19 09:16:00,
2013-05-19 02:21:00,56.2,26.0,24.57,East,82,0.0,4.0,31,0.00,,,0.00,VWS V14.01,2013-05-19 09:21:00,
2013-05-19 02:26:00,56.2,26.0,24.57,East,82,0.0,4.0,31,0.00,,,0.00,VWS V14.01,2013-05-19 09:26:00,
2013-05-19 02:31:00,56.1,25.9,24.57,East,81,1.0,3.0,31,0.00,,,0.00,VWS V14.01,2013-05-19 09:31:00,
2013-05-19 02:36:00,56.0,25.8,24.57,East,81,0.0,3.0,31,0.00,,,0.00,VWS V14.01,2013-05-19 09:36:00,
2013-05-19 02:41:00,55.9,25.7,24.57,East,81,0.0,3.0,31,0.00,,,0.00,VWS V14.01,2013-05-19 09:41:00,
2013-05-19 02:46:00,55.9,25.7,24.57,East,81,0.0,3.0,31,0.00,,,0.00,VWS V14.01,2013-05-19 09:46:00,
2013-05-19 02:51:00,55.9,25.7,24.57,East,81,0.0,3.0,31,0.00,,,0.00,VWS V14.01,2013-05-19 09:51:00,
2013-05-19 02:56:00,55.9,24.9,24.57,East,81,0.0,3.0,30,0.00,,,0.00,VWS V14.01,2013-05-19 09:56:00,
2013-05-19 03:01:00,55.9,24.9,24.57,East,81,0.0,0.0,30,0.00,,,0.00,VWS V14.01,2013-05-19 10:01:00,
2013-05-19 03:06:00,55.8,24.9,24.57,East,81,0.0,0.0,30,0.00,,,0.00,VWS V14.01,2013-05-19 10:06:00,
2013-05-19 03:11:00,55.7,24.8,24.57,East,81,0.0,0.0,30,0.00,,,0.00,VWS V14.01,2013-05-19 10:11:00,
2013-05-19 03:16:00,55.5,24.6,24.57,East,81,0.0,1.0,30,0.00,,,0.00,VWS V14.01,2013-05-19 10:16:00,
2013-05-19 03:21:00,55.4,24.5,24.57,East,81,0.0,1.0,30,0.00,,,0.00,VWS V14.01,2013-05-19 10:21:00,
2013-05-19 03:26:00,55.4,24.5,24.57,East,81,0.0,1.0,30,0.00,,,0.00,VWS V14.01,2013-05-19 10:26:00,
2013-05-19 03:31:00,55.4,24.5,24.57,East,81,0.0,0.0,30,0.00,,,0.00,VWS V14.01,2013-05-19 10:31:00,
2013-05-19 03:36:00,55.4,24.5,24.57,East,81,0.0,1.0,30,0.00,,,0.00,VWS V14.01,2013-05-19 10:36:00,
2013-05-19 03:41:00,55.3,24.4,24.57,East,81,0.0,1.0,30,0.00,,,0.00,VWS V14.01,2013-05-19 10:41:00,
2013-05-19 03:46:00,55.2,24.3,24.57,East,81,0.0,2.0,30,0.00,,,0.00,VWS V14.01,2013-05-19 10:46:00,
2013-05-19 03:51:00,55.1,23.4,24.57,East,81,2.0,2.0,29,0.00,,,0.00,VWS V14.01,2013-05-19 10:51:00,
2013-05-19 03:56:00,55.1,23.4,24.57,East,81,0.0,3.0,29,0.00,,,0.00,VWS V14.01,2013-05-19 10:56:00,
2013-05-19 04:01:00,55.1,23.4,24.57,East,80,3.0,3.0,29,0.00,,,0.00,VWS V14.01,2013-05-19 11:01:00,
2013-05-19 04:06:00,55.2,23.5,24.57,East,80,0.0,3.0,29,0.00,,,0.00,VWS V14.01,2013-05-19 11:06:00,
2013-05-19 04:11:00,55.3,23.6,24.57,ENE,77,3.0,4.0,29,0.00,,,0.00,VWS V14.01,2013-05-19 11:11:00,
2013-05-19 04:16:00,55.4,23.7,24.57,ENE,73,2.0,4.0,29,0.00,,,0.00,VWS V14.01,2013-05-19 11:16:00,
2013-05-19 04:21:00,55.4,23.7,24.57,ENE,73,1.0,4.0,29,0.00,,,0.00,VWS V14.01,2013-05-19 11:21:00,
2013-05-19 04:26:00,55.3,23.6,24.57,ENE,73,2.0,4.0,29,0.00,,,0.00,VWS V14.01,2013-05-19 11:26:00,
2013-05-19 04:31:00,55.2,23.5,24.57,ENE,73,0.0,3.0,29,0.00,,,0.00,VWS V14.01,2013-05-19 11:31:00,
2013-05-19 04:36:00,55.1,23.4,24.57,ENE,72,1.0,3.0,29,0.00,,,0.00,VWS V14.01,2013-05-19 11:36:00,
2013-05-19 04:41:00,54.9,24.1,24.57,ENE,73,0.0,3.0,30,0.00,,,0.00,VWS V14.01,2013-05-19 11:41:00,
2013-05-19 04:46:00,54.8,24.0,24.57,ENE,72,1.0,3.0,30,0.00,,,0.00,VWS V14.01,2013-05-19 11:46:00,
2013-05-19 04:51:00,54.8,24.0,24.57,ENE,72,0.0,3.0,30,0.00,,,0.00,VWS V14.01,2013-05-19 11:51:00,
2013-05-19 04:56:00,54.7,23.9,24.57,ENE,72,0.0,3.0,30,0.00,,,0.00,VWS V14.01,2013-05-19 11:56:00,
2013-05-19 05:01:00,54.7,23.9,24.57,ENE,72,0.0,2.0,30,0.00,,,0.00,VWS V14.01,2013-05-19 12:01:00,
2013-05-19 05:06:00,54.6,23.8,24.57,ENE,72,0.0,2.0,30,0.00,,,0.00,VWS V14.01,2013-05-19 12:06:00,
2013-05-19 05:11:00,54.6,23.8,24.57,ENE,72,1.0,2.0,30,0.00,,,0.00,VWS V14.01,2013-05-19 12:11:00,
2013-05-19 05:16:00,54.6,23.8,24.57,ENE,72,0.0,3.0,30,0.00,,,0.00,VWS V14.01,2013-05-19 12:16:00,
2013-05-19 05:21:00,54.6,23.8,24.57,ENE,71,1.0,3.0,30,0.00,,,0.00,VWS V14.01,2013-05-19 12:21:00,
2013-05-19 05:26:00,54.7,23.9,24.57,ENE,69,2.0,4.0,30,0.00,,,0.00,VWS V14.01,2013-05-19 12:26:00,
2013-05-19 05:31:00,54.7,23.9,24.57,ENE,65,0.0,3.0,30,0.00,,,0.00,VWS V14.01,2013-05-19 12:31:00,
2013-05-19 05:36:00,54.6,24.6,24.57,ENE,65,0.0,3.0,31,0.00,,,0.00,VWS V14.01,2013-05-19 12:36:00,
2013-05-19 05:41:00,54.4,24.4,24.57,ENE,65,0.0,3.0,31,0.00,,,0.00,VWS V14.01,2013-05-19 12:41:00,
2013-05-19 05:46:00,54.3,24.3,24.57,ENE,65,2.0,3.0,31,0.00,,,0.00,VWS V14.01,2013-05-19 12:46:00,
2013-05-19 05:51:00,54.3,24.3,24.57,ENE,66,0.0,3.0,31,0.00,,,0.00,VWS V14.01,2013-05-19 12:51:00,
2013-05-19 05:56:00,54.1,24.2,24.57,ENE,74,0.0,3.0,31,0.00,,,0.00,VWS V14.01,2013-05-19 12:56:00,
2013-05-19 06:01:00,54.1,24.2,24.57,ENE,74,0.0,1.0,31,0.00,,,0.00,VWS V14.01,2013-05-19 13:01:00,
2013-05-19 06:06:00,54.1,24.2,24.57,ENE,74,0.0,1.0,31,0.00,,,0.00,VWS V14.01,2013-05-19 13:06:00,
2013-05-19 06:11:00,54.2,24.2,24.57,ENE,74,0.0,1.0,31,0.00,,,0.00,VWS V14.01,2013-05-19 13:11:00,
2013-05-19 06:16:00,54.3,24.3,24.57,ENE,74,0.0,2.0,31,0.00,,,0.00,VWS V14.01,2013-05-19 13:16:00,
2013-05-19 06:21:00,54.4,24.4,24.57,ENE,74,0.0,2.0,31,0.00,,,0.00,VWS V14.01,2013-05-19 13:21:00,
2013-05-19 06:26:00,54.6,23.8,24.57,ENE,74,0.0,2.0,30,0.00,,,0.00,VWS V14.01,2013-05-19 13:26:00,
2013-05-19 06:31:00,54.9,24.1,24.57,ENE,74,0.0,2.0,30,0.00,,,0.00,VWS V14.01,2013-05-19 13:31:00,
2013-05-19 06:36:00,55.2,24.3,24.57,ENE,74,0.0,2.0,30,0.00,,,0.00,VWS V14.01,2013-05-19 13:36:00,
2013-05-19 06:41:00,55.6,24.7,24.57,ENE,74,0.0,2.0,30,0.00,,,0.00,VWS V14.01,2013-05-19 13:41:00,
2013-05-19 06:46:00,56.1,25.9,24.57,ENE,74,0.0,2.0,31,0.00,,,0.00,VWS V14.01,2013-05-19 13:46:00,
2013-05-19 06:51:00,56.6,26.3,24.57,ENE,74,0.0,2.0,31,0.00,,,0.00,VWS V14.01,2013-05-19 13:51:00,
2013-05-19 06:56:00,57.2,26.9,24.57,ENE,74,0.0,2.0,31,0.00,,,0.00,VWS V14.01,2013-05-19 13:56:00,
2013-05-19 07:01:00,57.7,28.1,24.57,ENE,74,0.0,0.0,32,0.00,,,0.00,VWS V14.01,2013-05-19 14:01:00,
2013-05-19 07:06:00,58.4,28.7,24.57,ENE,74,1.0,1.0,32,0.00,,,0.00,VWS V14.01,2013-05-19 14:06:00,
2013-05-19 07:11:00,59.0,30.0,24.57,ENE,74,0.0,2.0,33,0.00,,,0.00,VWS V14.01,2013-05-19 14:11:00,
2013-05-19 07:16:00,59.3,31.0,24.57,ENE,76,1.0,2.0,34,0.00,,,0.00,VWS V14.01,2013-05-19 14:16:00,
2013-05-19 07:21:00,59.9,32.2,24.57,ENE,75,0.0,3.0,35,0.00,,,0.00,VWS V14.01,2013-05-19 14:21:00,
2013-05-19 07:26:00,60.2,33.2,24.57,ENE,75,0.0,3.0,36,0.00,,,0.00,VWS V14.01,2013-05-19 14:26:00,
2013-05-19 07:31:00,60.7,33.6,24.57,ENE,76,0.0,1.0,36,0.00,,,0.00,VWS V14.01,2013-05-19 14:31:00,
2013-05-19 07:36:00,61.2,34.1,24.57,ENE,76,0.0,2.0,36,0.00,,,0.00,VWS V14.01,2013-05-19 14:36:00,
2013-05-19 07:41:00,61.8,34.6,24.57,East,82,0.0,2.0,36,0.00,,,0.00,VWS V14.01,2013-05-19 14:41:00,
2013-05-19 07:46:00,62.4,35.8,24.57,NE,53,0.0,2.0,37,0.00,,,0.00,VWS V14.01,2013-05-19 14:46:00,
2013-05-19 07:51:00,62.1,36.2,24.57,NE,51,1.0,2.0,38,0.00,,,0.00,VWS V14.01,2013-05-19 14:51:00,
2013-05-19 07:56:00,61.9,36.7,24.57,NNW,329,0.0,4.0,39,0.00,,,0.00,VWS V14.01,2013-05-19 14:56:00,
2013-05-19 08:01:00,61.8,36.6,24.57,NNW,328,0.0,2.0,39,0.00,,,0.00,VWS V14.01,2013-05-19 15:01:00,
2013-05-19 08:06:00,62.0,36.8,24.57,NW,322,0.0,3.0,39,0.00,,,0.00,VWS V14.01,2013-05-19 15:06:00,
2013-05-19 08:11:00,62.3,36.4,24.57,WNW,291,3.0,4.0,38,0.00,,,0.00,VWS V14.01,2013-05-19 15:11:00,
2013-05-19 08:16:00,62.6,37.3,24.57,West,273,0.0,4.0,39,0.00,,,0.00,VWS V14.01,2013-05-19 15:16:00,
2013-05-19 08:21:00,62.9,37.6,24.57,West,275,0.0,4.0,39,0.00,,,0.00,VWS V14.01,2013-05-19 15:21:00,
2013-05-19 08:25:00,63.4,37.4,24.57,West,275,3.0,4.0,38,0.00,,,0.00,VWS V14.01,2013-05-19 15:25:00,
2013-05-19 08:31:00,64.0,37.9,24.57,West,273,0.0,1.0,38,0.00,,,0.00,VWS V14.01,2013-05-19 15:31:00,
2013-05-19 08:36:00,64.1,38.0,24.57,West,279,0.0,3.0,38,0.00,,,0.00,VWS V14.01,2013-05-19 15:36:00,
2013-05-19 08:41:00,64.1,38.7,24.57,West,275,0.0,4.0,39,0.00,,,0.00,VWS V14.01,2013-05-19 15:41:00,
2013-05-19 08:46:00,64.1,38.7,24.57,WNW,295,1.0,4.0,39,0.00,,,0.00,VWS V14.01,2013-05-19 15:46:00,
2013-05-19 08:50:00,64.4,38.9,24.57,WNW,300,1.0,4.0,39,0.00,,,0.00,VWS V14.01,2013-05-19 15:50:00,
2013-05-19 08:55:00,64.8,39.3,24.57,WNW,300,1.0,4.0,39,0.00,,,0.00,VWS V14.01,2013-05-19 15:55:00,
2013-05-19 09:00:00,65.3,39.7,24.57,WNW,298,0.0,0.0,39,0.00,,,0.00,VWS V14.01,2013-05-19 16:00:00,
2013-05-19 09:05:00,66.1,39.8,24.57,WNW,292,2.0,4.0,38,0.00,,,0.00,VWS V14.01,2013-05-19 16:05:00,
2013-05-19 09:10:00,66.4,40.7,24.57,WNW,284,0.0,4.0,39,0.00,,,0.00,VWS V14.01,2013-05-19 16:10:00,
2013-05-19 09:15:00,66.9,41.2,24.57,West,260,1.0,5.0,39,0.00,,,0.00,VWS V14.01,2013-05-19 16:15:00,
2013-05-19 09:20:00,67.5,41.7,24.57,West,260,1.0,5.0,39,0.00,,,0.00,VWS V14.01,2013-05-19 16:20:00,
2013-05-19 09:25:00,67.3,42.2,24.57,SSW,213,4.0,5.0,40,0.00,,,0.00,VWS V14.01,2013-05-19 16:25:00,
2013-05-19 09:30:00,67.1,42.0,24.57,South,187,1.0,5.0,40,0.00,,,0.00,VWS V14.01,2013-05-19 16:30:00,
2013-05-19 09:35:00,66.9,41.8,24.57,SW,229,5.0,5.0,40,0.00,,,0.00,VWS V14.01,2013-05-19 16:35:00,
2013-05-19 09:40:00,66.1,41.7,24.57,SW,225,2.0,8.0,41,0.00,,,0.00,VWS V14.01,2013-05-19 16:40:00,
2013-05-19 09:45:00,65.4,41.7,24.57,WSW,243,3.0,8.0,42,0.00,,,0.00,VWS V14.01,2013-05-19 16:45:00,
2013-05-19 09:50:00,65.6,41.9,24.57,SSW,213,7.0,8.0,42,0.00,,,0.00,VWS V14.01,2013-05-19 16:50:00,
2013-05-19 09:55:00,65.9,42.2,24.57,WNW,290,3.0,8.0,42,0.00,,,0.00,VWS V14.01,2013-05-19 16:55:00,
2013-05-19 10:00:00,66.1,41.7,24.57,SW,228,4.0,6.0,41,0.00,,,0.00,VWS V14.01,2013-05-19 17:00:00,
2013-05-19 10:05:00,66.3,41.9,24.57,WSW,241,3.0,7.0,41,0.00,,,0.00,VWS V14.01,2013-05-19 17:05:00,
2013-05-19 10:10:00,66.4,42.0,24.57,WSW,254,5.0,7.0,41,0.00,,,0.00,VWS V14.01,2013-05-19 17:10:00,
2013-05-19 10:15:00,66.6,42.2,24.57,SSW,194,2.0,7.0,41,0.00,,,0.00,VWS V14.01,2013-05-19 17:15:00,
2013-05-19 10:20:00,66.7,42.3,24.57,West,269,4.0,7.0,41,0.00,,,0.00,VWS V14.01,2013-05-19 17:20:00,
2013-05-19 10:25:00,66.8,42.4,24.57,SW,221,1.0,7.0,41,0.00,,,0.00,VWS V14.01,2013-05-19 17:25:00,
2013-05-19 10:30:00,67.2,42.7,24.57,West,279,4.0,5.0,41,0.00,,,0.00,VWS V14.01,2013-05-19 17:30:00,
2013-05-19 10:35:00,66.9,42.5,24.57,SW,214,5.0,7.0,41,0.00,,,0.00,VWS V14.01,2013-05-19 17:35:00,
2013-05-19 10:40:00,66.8,42.4,24.57,SW,226,3.0,8.0,41,0.00,,,0.00,VWS V14.01,2013-05-19 17:40:00,
2013-05-19 10:45:00,66.2,42.5,24.57,SSW,196,2.0,9.0,42,0.00,,,0.00,VWS V14.01,2013-05-19 17:45:00,
2013-05-19 10:50:00,66.2,42.5,24.57,SW,223,5.0,11.0,42,0.00,,,0.00,VWS V14.01,2013-05-19 17:50:00,
2013-05-19 10:55:00,66.7,42.9,24.57,SW,232,4.0,11.0,42,0.00,,,0.00,VWS V14.01,2013-05-19 17:55:00,
2013-05-19 11:00:00,66.4,42.6,24.57,SW,231,2.0,7.0,42,0.00,,,0.00,VWS V14.01,2013-05-19 18:00:00,
2013-05-19 11:05:00,66.5,42.1,24.57,SW,229,6.0,11.0,41,0.00,,,0.00,VWS V14.01,2013-05-19 18:05:00,
2013-05-19 11:10:00,66.7,42.3,24.57,SW,223,8.0,11.0,41,0.00,,,0.00,VWS V14.01,2013-05-19 18:10:00,
2013-05-19 11:15:00,66.4,42.0,24.57,SW,234,6.0,12.0,41,0.00,,,0.00,VWS V14.01,2013-05-19 18:15:00,
2013-05-19 11:20:00,67.1,42.6,24.57,WSW,239,8.0,12.0,41,0.00,,,0.00,VWS V14.01,2013-05-19 18:20:00,
2013-05-19 11:25:00,66.6,42.2,24.57,SW,234,10.0,16.0,41,0.00,,,0.00,VWS V14.01,2013-05-19 18:25:00,
2013-05-19 11:30:00,66.2,41.8,24.57,West,259,4.0,12.0,41,0.00,,,0.00,VWS V14.01,2013-05-19 18:30:00,
2013-05-19 11:35:00,66.3,41.3,24.57,WSW,249,0.0,12.0,40,0.00,,,0.00,VWS V14.01,2013-05-19 18:35:00,
2013-05-19 11:40:00,66.8,41.7,24.57,WSW,254,3.0,12.0,40,0.00,,,0.00,VWS V14.01,2013-05-19 18:40:00,
2013-05-19 11:45:00,67.5,41.7,24.57,WSW,252,11.0,12.0,39,0.00,,,0.00,VWS V14.01,2013-05-19 18:45:00,
2013-05-19 11:50:00,66.4,41.4,24.57,West,265,0.0,14.0,40,0.00,,,0.00,VWS V14.01,2013-05-19 18:50:00,
2013-05-19 11:55:00,66.0,41.0,24.57,WSW,250,4.0,14.0,40,0.00,,,0.00,VWS V14.01,2013-05-19 18:55:00,
2013-05-19 12:00:00,65.9,40.3,24.57,SSW,205,4.0,9.0,39,0.00,,,0.00,VWS V14.01,2013-05-19 19:00:00,
2013-05-19 12:05:00,66.1,40.5,24.57,WNW,286,4.0,11.0,39,0.00,,,0.00,VWS V14.01,2013-05-19 19:05:00,
2013-05-19 12:10:00,66.0,40.4,24.57,SW,232,5.0,13.0,39,0.00,,,0.00,VWS V14.01,2013-05-19 19:10:00,
2013-05-19 12:15:00,65.7,39.4,24.57,WSW,243,14.0,14.0,38,0.00,,,0.00,VWS V14.01,2013-05-19 19:15:00,
2013-05-19 12:20:00,65.3,39.1,24.57,WSW,244,9.0,14.0,38,0.00,,,0.00,VWS V14.01,2013-05-19 19:20:00,
2013-05-19 12:25:00,66.1,39.8,24.57,West,267,8.0,14.0,38,0.00,,,0.00,VWS V14.01,2013-05-19 19:25:00,
2013-05-19 12:30:00,66.7,40.3,24.57,WSW,238,6.0,8.0,38,0.00,,,0.00,VWS V14.01,2013-05-19 19:30:00,
2013-05-19 12:35:00,66.3,40.0,24.57,NW,314,2.0,11.0,38,0.00,,,0.00,VWS V14.01,2013-05-19 19:35:00,
2013-05-19 12:40:00,66.1,40.5,24.57,WSW,256,6.0,13.0,39,0.00,,,0.00,VWS V14.01,2013-05-19 19:40:00,
2013-05-19 12:45:00,65.9,40.3,24.57,West,271,3.0,13.0,39,0.00,,,0.00,VWS V14.01,2013-05-19 19:45:00,
2013-05-19 12:50:00,65.4,39.8,24.57,SSW,213,5.0,13.0,39,0.00,,,0.00,VWS V14.01,2013-05-19 19:50:00,
2013-05-19 12:55:00,66.6,40.2,24.57,WSW,237,8.0,13.0,38,0.00,,,0.00,VWS V14.01,2013-05-19 19:55:00,
2013-05-19 13:00:00,67.1,40.7,24.57,SSW,200,9.0,9.0,38,0.00,,,0.00,VWS V14.01,2013-05-19 20:00:00,
2013-05-19 13:05:00,67.3,40.8,24.57,WSW,242,6.0,11.0,38,0.00,,,0.00,VWS V14.01,2013-05-19 20:05:00,
2013-05-19 13:10:00,67.7,41.2,24.57,SW,222,5.0,11.0,38,0.00,,,0.00,VWS V14.01,2013-05-19 20:10:00,
2013-05-19 13:15:00,67.2,41.4,24.57,WSW,237,7.0,12.0,39,0.00,,,0.00,VWS V14.01,2013-05-19 20:15:00,
2013-05-19 13:20:00,67.1,41.3,24.57,WNW,288,8.0,13.0,39,0.00,,,0.00,VWS V14.01,2013-05-19 20:20:00,
2013-05-19 13:25:00,67.4,41.6,24.57,WSW,244,6.0,13.0,39,0.00,,,0.00,VWS V14.01,2013-05-19 20:25:00,
2013-05-19 13:30:00,67.4,41.6,24.57,SW,233,4.0,8.0,39,0.00,,,0.00,VWS V14.01,2013-05-19 20:30:00,
2013-05-19 13:35:00,67.8,42.0,24.57,SSW,208,3.0,10.0,39,0.00,,,0.00,VWS V14.01,2013-05-19 20:35:00,
2013-05-19 13:40:00,68.2,42.3,24.57,WSW,248,8.0,10.0,39,0.00,,,0.00,VWS V14.01,2013-05-19 20:40:00,
2013-05-19 13:45:00,67.9,42.1,24.57,WSW,242,6.0,10.0,39,0.00,,,0.00,VWS V14.01,2013-05-19 20:45:00,
2013-05-19 13:50:00,67.4,42.3,24.57,South,177,5.0,10.0,40,0.00,,,0.00,VWS V14.01,2013-05-19 20:50:00,
2013-05-19 13:55:00,67.3,42.2,24.57,SSW,212,5.0,12.0,40,0.00,,,0.00,VWS V14.01,2013-05-19 20:55:00,
2013-05-19 14:00:00,67.1,42.0,24.57,SSW,200,3.0,7.0,40,0.00,,,0.00,VWS V14.01,2013-05-19 21:00:00,
2013-05-19 14:05:00,67.2,42.1,24.57,SW,233,5.0,9.0,40,0.00,,,0.00,VWS V14.01,2013-05-19 21:05:00,
2013-05-19 14:10:00,68.2,43.0,24.57,SW,220,3.0,9.0,40,0.00,,,0.00,VWS V14.01,2013-05-19 21:10:00,
2013-05-19 14:15:00,68.4,42.5,24.57,SSW,213,5.0,12.0,39,0.00,,,0.00,VWS V14.01,2013-05-19 21:15:00,
2013-05-19 14:20:00,67.7,42.5,24.57,WSW,242,4.0,12.0,40,0.00,,,0.00,VWS V14.01,2013-05-19 21:20:00,
2013-05-19 14:25:00,67.5,43.0,24.57,SW,234,5.0,13.0,41,0.00,,,0.00,VWS V14.01,2013-05-19 21:25:00,
2013-05-19 14:30:00,67.9,42.7,24.57,SSW,194,9.0,9.0,40,0.00,,,0.00,VWS V14.01,2013-05-19 21:30:00,
2013-05-19 14:35:00,67.2,42.7,24.57,WSW,240,5.0,11.0,41,0.00,,,0.00,VWS V14.01,2013-05-19 21:35:00,
2013-05-19 14:40:00,67.1,42.6,24.57,South,188,2.0,11.0,41,0.00,,,0.00,VWS V14.01,2013-05-19 21:40:00,
2013-05-19 14:45:00,67.9,43.4,24.57,SSW,202,1.0,11.0,41,0.00,,,0.00,VWS V14.01,2013-05-19 21:45:00,
2013-05-19 14:50:00,68.2,43.0,24.57,SW,226,3.0,11.0,40,0.00,,,0.00,VWS V14.01,2013-05-19 21:50:00,
2013-05-19 14:55:00,68.4,43.2,24.57,SW,236,4.0,11.0,40,0.00,,,0.00,VWS V14.01,2013-05-19 21:55:00,
2013-05-19 15:00:00,68.9,43.6,24.57,SW,232,2.0,6.0,40,0.00,,,0.00,VWS V14.01,2013-05-19 22:00:00,
2013-05-19 15:05:00,69.0,43.7,24.57,South,187,9.0,10.0,40,0.00,,,0.00,VWS V14.01,2013-05-19 22:05:00,
2013-05-19 15:10:00,69.2,43.9,24.57,SW,223,4.0,10.0,40,0.00,,,0.00,VWS V14.01,2013-05-19 22:10:00,
2013-05-19 15:15:00,69.8,43.8,24.57,SSW,196,8.0,10.0,39,0.00,,,0.00,VWS V14.01,2013-05-19 22:15:00,
2013-05-19 15:20:00,69.1,43.8,24.57,SW,225,6.0,10.0,40,0.00,,,0.00,VWS V14.01,2013-05-19 22:20:00,
2013-05-19 15:25:00,69.8,43.8,24.57,SW,221,6.0,10.0,39,0.00,,,0.00,VWS V14.01,2013-05-19 22:25:00,
2013-05-19 15:30:00,70.0,43.9,24.57,SSW,210,2.0,5.0,39,0.00,,,0.00,VWS V14.01,2013-05-19 22:30:00,
2013-05-19 15:35:00,71.3,44.4,24.57,WSW,253,2.0,7.0,38,0.00,,,0.00,VWS V14.01,2013-05-19 22:35:00,
2013-05-19 15:40:00,71.3,45.1,24.57,WSW,244,5.0,9.0,39,0.00,,,0.00,VWS V14.01,2013-05-19 22:40:00,
2013-05-19 15:45:00,70.9,45.4,24.57,SSW,212,3.0,9.0,40,0.00,,,0.00,VWS V14.01,2013-05-19 22:45:00,
2013-05-19 15:50:00,70.8,45.3,24.57,SW,231,0.0,9.0,40,0.00,,,0.00,VWS V14.01,2013-05-19 22:50:00,
2013-05-19 15:55:00,70.7,45.9,24.57,WSW,238,5.0,9.0,41,0.00,,,0.00,VWS V14.01,2013-05-19 22:55:00,
2013-05-19 16:00:00,69.8,45.7,24.57,SW,233,8.0,8.0,42,0.00,,,0.00,VWS V14.01,2013-05-19 23:00:00,
2013-05-19 16:05:00,70.5,46.3,24.57,WSW,240,6.0,8.0,42,0.00,,,0.00,VWS V14.01,2013-05-19 23:05:00,
2013-05-19 16:10:00,70.9,46.0,24.57,SSW,210,3.0,9.0,41,0.00,,,0.00,VWS V14.01,2013-05-19 23:10:00,
2013-05-19 16:15:00,71.0,45.5,24.57,SW,231,2.0,9.0,40,0.00,,,0.00,VWS V14.01,2013-05-19 23:15:00,
2013-05-19 16:20:00,71.7,46.1,24.57,SW,218,6.0,9.0,40,0.00,,,0.00,VWS V14.01,2013-05-19 23:20:00,
2013-05-19 16:25:00,71.8,46.9,24.57,WSW,254,2.0,9.0,41,0.00,,,0.00,VWS V14.01,2013-05-19 23:25:00,
2013-05-19 16:30:00,71.3,47.0,24.57,SW,231,5.0,7.0,42,0.00,,,0.00,VWS V14.01,2013-05-19 23:30:00,
2013-05-19 16:35:00,70.8,47.2,24.57,SW,235,0.0,8.0,43,0.00,,,0.00,VWS V14.01,2013-05-19 23:35:00,
2013-05-19 16:40:00,70.3,47.4,24.57,West,269,2.0,8.0,44,0.00,,,0.00,VWS V14.01,2013-05-19 23:40:00,
2013-05-19 16:45:00,70.0,47.1,24.57,SSW,207,3.0,8.0,44,0.00,,,0.00,VWS V14.01,2013-05-19 23:45:00,
2013-05-19 16:50:00,70.2,47.3,24.57,West,278,0.0,8.0,44,0.00,,,0.00,VWS V14.01,2013-05-19 23:50:00,
2013-05-19 16:55:00,70.2,46.7,24.57,WSW,238,1.0,8.0,43,0.00,,,0.00,VWS V14.01,2013-05-19 23:55:00,
2013-05-19 17:00:00,69.8,46.3,24.57,West,269,0.0,6.0,43,0.00,,,0.00,VWS V14.01,2013-05-20 00:00:00,
2013-05-19 17:05:00,69.7,46.8,24.57,SW,222,6.0,7.0,44,0.00,,,0.00,VWS V14.01,2013-05-20 00:05:00,
2013-05-19 17:10:00,69.3,46.5,24.57,WSW,249,0.0,7.0,44,0.00,,,0.00,VWS V14.01,2013-05-20 00:10:00,
2013-05-19 17:15:00,68.6,46.4,24.57,SSW,213,3.0,7.0,45,0.00,,,0.00,VWS V14.01,2013-05-20 00:15:00,
2013-05-19 17:20:00,68.5,46.3,24.57,WSW,251,3.0,7.0,45,0.00,,,0.00,VWS V14.01,2013-05-20 00:20:00,
2013-05-19 17:25:00,68.6,46.4,24.57,SSW,213,1.0,7.0,45,0.00,,,0.00,VWS V14.01,2013-05-20 00:25:00,
2013-05-19 17:30:00,68.4,46.2,24.57,WSW,257,2.0,4.0,45,0.00,,,0.00,VWS V14.01,2013-05-20 00:30:00,
2013-05-19 17:35:00,67.7,46.2,24.57,WSW,240,1.0,8.0,46,0.00,,,0.00,VWS V14.01,2013-05-20 00:35:00,
2013-05-19 17:40:00,68.3,46.2,24.57,WSW,238,4.0,8.0,45,0.00,,,0.00,VWS V14.01,2013-05-20 00:40:00,
2013-05-19 17:45:00,68.8,46.0,24.57,WSW,244,2.0,8.0,44,0.00,,,0.00,VWS V14.01,2013-05-20 00:45:00,
2013-05-19 17:50:00,68.7,45.9,24.57,West,265,0.0,8.0,44,0.00,,,0.00,VWS V14.01,2013-05-20 00:50:00,
2013-05-19 17:55:00,68.3,46.2,24.57,West,265,1.0,8.0,45,0.00,,,0.00,VWS V14.01,2013-05-20 00:55:00,
2013-05-19 18:00:00,68.5,46.3,24.57,SSW,196,2.0,4.0,45,0.00,,,0.00,VWS V14.01,2013-05-20 01:00:00,
2013-05-19 18:05:00,68.6,46.4,24.57,WSW,238,4.0,5.0,45,0.00,,,0.00,VWS V14.01,2013-05-20 01:05:00,
2013-05-19 18:10:00,68.6,46.4,24.57,WSW,248,3.0,5.0,45,0.00,,,0.00,VWS V14.01,2013-05-20 01:10:00,
2013-05-19 18:15:00,68.6,46.4,24.57,West,261,4.0,5.0,45,0.00,,,0.00,VWS V14.01,2013-05-20 01:15:00,
2013-05-19 18:20:00,68.8,46.0,24.57,SW,215,2.0,5.0,44,0.00,,,0.00,VWS V14.01,2013-05-20 01:20:00,
2013-05-19 18:25:00,68.5,46.3,24.57,WSW,239,4.0,6.0,45,0.00,,,0.00,VWS V14.01,2013-05-20 01:25:00,
2013-05-19 18:30:00,68.3,46.2,24.57,SSW,210,1.0,5.0,45,0.00,,,0.00,VWS V14.01,2013-05-20 01:30:00,
2013-05-19 18:35:00,68.0,45.9,24.57,South,175,2.0,5.0,45,0.00,,,0.00,VWS V14.01,2013-05-20 01:35:00,
2013-05-19 18:40:00,67.9,45.8,24.57,SSW,205,4.0,6.0,45,0.00,,,0.00,VWS V14.01,2013-05-20 01:40:00,
2013-05-19 18:45:00,67.7,45.6,24.57,SW,214,1.0,6.0,45,0.00,,,0.00,VWS V14.01,2013-05-20 01:45:00,
2013-05-19 18:50:00,67.7,45.0,24.57,SW,223,3.0,6.0,44,0.00,,,0.00,VWS V14.01,2013-05-20 01:50:00,
2013-05-19 18:55:00,67.1,45.1,24.57,South,184,1.0,6.0,45,0.00,,,0.00,VWS V14.01,2013-05-20 01:55:00,
2013-05-19 19:00:00,66.9,44.9,24.57,South,180,0.0,4.0,45,0.00,,,0.00,VWS V14.01,2013-05-20 02:00:00,
2013-05-19 19:05:00,66.9,44.9,24.57,South,178,1.0,4.0,45,0.00,,,0.00,VWS V14.01,2013-05-20 02:05:00,
2013-05-19 19:10:00,66.8,44.8,24.57,SSW,192,3.0,4.0,45,0.00,,,0.00,VWS V14.01,2013-05-20 02:10:00,
2013-05-19 19:15:00,66.5,44.5,24.57,South,190,2.0,4.0,45,0.00,,,0.00,VWS V14.01,2013-05-20 02:15:00,
2013-05-19 19:20:00,66.1,44.2,24.57,South,179,0.0,5.0,45,0.00,,,0.00,VWS V14.01,2013-05-20 02:20:00,
2013-05-19 19:25:00,66.1,43.6,24.57,South,174,0.0,5.0,44,0.00,,,0.00,VWS V14.01,2013-05-20 02:25:00,
2013-05-19 19:30:00,65.8,43.3,24.57,SSE,164,0.0,2.0,44,0.00,,,0.00,VWS V14.01,2013-05-20 02:30:00,
2013-05-19 19:35:00,65.6,43.1,24.57,SSE,164,1.0,2.0,44,0.00,,,0.00,VWS V14.01,2013-05-20 02:35:00,
2013-05-19 19:40:00,65.4,42.9,24.57,SSE,164,1.0,4.0,44,0.00,,,0.00,VWS V14.01,2013-05-20 02:40:00,
2013-05-19 19:45:00,65.3,42.8,24.57,SSE,164,0.0,4.0,44,0.00,,,0.00,VWS V14.01,2013-05-20 02:45:00,
2013-05-19 19:50:00,65.3,42.2,24.57,SSE,164,0.0,4.0,43,0.00,,,0.00,VWS V14.01,2013-05-20 02:50:00,
2013-05-19 19:55:00,65.2,42.2,24.57,SSE,164,0.0,4.0,43,0.00,,,0.00,VWS V14.01,2013-05-20 02:55:00,
2013-05-19 20:00:00,65.2,42.2,24.57,SSE,164,0.0,2.0,43,0.00,,,0.00,VWS V14.01,2013-05-20 03:00:00,
2013-05-19 20:05:00,65.1,42.1,24.57,SSE,164,0.0,2.0,43,0.00,,,0.00,VWS V14.01,2013-05-20 03:05:00,
2013-05-19 20:10:00,65.0,42.0,24.57,SSE,164,0.0,2.0,43,0.00,,,0.00,VWS V14.01,2013-05-20 03:10:00,
2013-05-19 20:15:00,64.9,41.9,24.57,SSE,164,0.0,2.0,43,0.00,,,0.00,VWS V14.01,2013-05-20 03:15:00,
2013-05-19 20:20:00,64.8,41.8,24.57,SSE,164,0.0,2.0,43,0.00,,,0.00,VWS V14.01,2013-05-20 03:20:00,
2013-05-19 20:25:00,64.7,41.1,24.57,SSE,164,0.0,2.0,42,0.00,,,0.00,VWS V14.01,2013-05-20 03:25:00,
2013-05-19 20:30:00,64.6,41.0,24.57,SSE,164,0.0,0.0,42,0.00,,,0.00,VWS V14.01,2013-05-20 03:30:00,
2013-05-19 20:35:00,64.6,41.0,24.57,SSE,164,0.0,0.0,42,0.00,,,0.00,VWS V14.01,2013-05-20 03:35:00,
2013-05-19 20:40:00,64.5,40.3,24.57,SSE,164,0.0,0.0,41,0.00,,,0.00,VWS V14.01,2013-05-20 03:40:00,
2013-05-19 20:45:00,64.4,40.2,24.57,SSE,164,0.0,0.0,41,0.00,,,0.00,VWS V14.01,2013-05-20 03:45:00,
2013-05-19 20:50:00,64.3,40.1,24.57,SSE,164,0.0,0.0,41,0.00,,,0.00,VWS V14.01,2013-05-20 03:50:00,
2013-05-19 20:55:00,64.3,40.1,24.57,SSE,164,0.0,0.0,41,0.00,,,0.00,VWS V14.01,2013-05-20 03:55:00,
2013-05-19 21:00:00,64.3,40.1,24.57,SSE,164,0.0,0.0,41,0.00,,,0.00,VWS V14.01,2013-05-20 04:00:00,
2013-05-19 21:01:00,64.3,40.1,24.57,SSE,164,0.0,0.0,41,0.00,,,0.00,VWS V14.01,2013-05-20 04:01:00,
2013-05-19 21:06:00,64.2,40.0,24.57,SSE,164,0.0,0.0,41,0.00,,,0.00,VWS V14.01,2013-05-20 04:06:00,
2013-05-19 21:11:00,64.1,39.9,24.57,SSE,164,0.0,0.0,41,0.00,,,0.00,VWS V14.01,2013-05-20 04:11:00,
2013-05-19 21:16:00,64.0,39.8,24.57,SSE,164,0.0,0.0,41,0.00,,,0.00,VWS V14.01,2013-05-20 04:16:00,
2013-05-19 21:21:00,63.9,39.8,24.57,SSE,164,0.0,0.0,41,0.00,,,0.00,VWS V14.01,2013-05-20 04:21:00,
2013-05-19 21:26:00,63.8,39.0,24.57,SSE,164,0.0,0.0,40,0.00,,,0.00,VWS V14.01,2013-05-20 04:26:00,
2013-05-19 21:31:00,63.8,39.0,24.57,SSE,164,0.0,0.0,40,0.00,,,0.00,VWS V14.01,2013-05-20 04:31:00,
2013-05-19 21:36:00,63.7,39.0,24.57,SSE,164,0.0,0.0,40,0.00,,,0.00,VWS V14.01,2013-05-20 04:36:00,
2013-05-19 21:41:00,63.5,38.1,24.57,SSE,164,0.0,0.0,39,0.00,,,0.00,VWS V14.01,2013-05-20 04:41:00,
2013-05-19 21:46:00,63.4,38.0,24.57,SSE,164,0.0,0.0,39,0.00,,,0.00,VWS V14.01,2013-05-20 04:46:00,
2013-05-19 21:51:00,63.2,37.9,24.57,SSE,164,0.0,0.0,39,0.00,,,0.00,VWS V14.01,2013-05-20 04:51:00,
2013-05-19 21:56:00,63.2,37.2,24.57,SSE,164,0.0,0.0,38,0.00,,,0.00,VWS V14.01,2013-05-20 04:56:00,
2013-05-19 22:01:00,63.1,37.1,24.57,SSE,164,0.0,0.0,38,0.00,,,0.00,VWS V14.01,2013-05-20 05:01:00,
2013-05-19 22:06:00,62.9,36.9,24.57,SSE,164,0.0,0.0,38,0.00,,,0.00,VWS V14.01,2013-05-20 05:06:00,
2013-05-19 22:11:00,62.8,36.8,24.57,SSE,164,0.0,0.0,38,0.00,,,0.00,VWS V14.01,2013-05-20 05:11:00,
2013-05-19 22:16:00,62.7,36.8,24.57,SSE,164,0.0,0.0,38,0.00,,,0.00,VWS V14.01,2013-05-20 05:16:00,
2013-05-19 22:21:00,62.5,35.9,24.57,SSE,164,0.0,0.0,37,0.00,,,0.00,VWS V14.01,2013-05-20 05:21:00,
2013-05-19 22:26:00,62.2,36.3,24.57,SSE,164,0.0,0.0,38,0.00,,,0.00,VWS V14.01,2013-05-20 05:26:00,
2013-05-19 22:31:00,62.1,35.5,24.57,SSE,164,0.0,0.0,37,0.00,,,0.00,VWS V14.01,2013-05-20 05:31:00,
2013-05-19 22:36:00,62.0,35.5,24.57,SSE,164,0.0,0.0,37,0.00,,,0.00,VWS V14.01,2013-05-20 05:36:00,
2013-05-19 22:41:00,61.9,35.4,24.57,SSE,164,0.0,0.0,37,0.00,,,0.00,VWS V14.01,2013-05-20 05:41:00,
2013-05-19 22:46:00,61.7,35.2,24.57,SSE,164,0.0,0.0,37,0.00,,,0.00,VWS V14.01,2013-05-20 05:46:00,
2013-05-19 22:51:00,61.5,35.0,24.57,SSE,164,0.0,0.0,37,0.00,,,0.00,VWS V14.01,2013-05-20 05:51:00,
2013-05-19 22:56:00,61.4,34.9,24.57,SSE,164,0.0,0.0,37,0.00,,,0.00,VWS V14.01,2013-05-20 05:56:00,
2013-05-19 23:01:00,61.3,34.8,24.57,SSE,164,0.0,0.0,37,0.00,,,0.00,VWS V14.01,2013-05-20 06:01:00,
2013-05-19 23:06:00,61.1,34.7,24.57,SSE,164,0.0,0.0,37,0.00,,,0.00,VWS V14.01,2013-05-20 06:06:00,
2013-05-19 23:11:00,60.9,34.5,24.57,SSE,164,0.0,0.0,37,0.00,,,0.00,VWS V14.01,2013-05-20 06:11:00,
2013-05-19 23:16:00,60.8,34.4,24.57,SSE,164,0.0,0.0,37,0.00,,,0.00,VWS V14.01,2013-05-20 06:16:00,
2013-05-19 23:21:00,60.7,34.3,24.57,SSE,164,0.0,0.0,37,0.00,,,0.00,VWS V14.01,2013-05-20 06:21:00,
2013-05-19 23:26:00,60.6,33.5,24.57,SSE,164,0.0,0.0,36,0.00,,,0.00,VWS V14.01,2013-05-20 06:26:00,
2013-05-19 23:31:00,60.4,33.3,24.57,SSE,164,0.0,0.0,36,0.00,,,0.00,VWS V14.01,2013-05-20 06:31:00,
2013-05-19 23:36:00,60.2,33.2,24.57,SSE,164,0.0,0.0,36,0.00,,,0.00,VWS V14.01,2013-05-20 06:36:00,
2013-05-19 23:41:00,60.0,33.0,24.57,SE,142,0.0,4.0,36,0.00,,,0.00,VWS V14.01,2013-05-20 06:41:00,
2013-05-19 23:46:00,59.8,32.1,24.57,SE,142,0.0,4.0,35,0.00,,,0.00,VWS V14.01,2013-05-20 06:46:00,
2013-05-19 23:51:00,59.6,31.9,24.57,SE,142,0.0,4.0,35,0.00,,,0.00,VWS V14.01,2013-05-20 06:51:00,
2013-05-19 23:56:00,59.5,31.1,24.57,SE,142,0.0,4.0,34,0.00,,,0.00,VWS V14.01,2013-05-20 06:56:00,